Regional Weather Roundup
Issued by NWS Tiyan, Guam

Home | Current Version | Previous Version | Text Only | Print | Product List | Glossary On
Versions: 1 2 3 4 5 6 7 8 9 10 11 12 13 14 15 16 17 18 19 20 21 22 23 24 25 26 27 28
000
ASGM40 PGUM 232312
RWRGUM
WEATHER ROUNDUP FOR THE MARIANAS
NATIONAL WEATHER SERVICE TIYAN GU
900 AM GSST THU APR 24 2014

GUZ001>004-240000-
MARIANA ISLANDS-

CITY           SKY/WX    TMP DP  RH WIND       PRES   REMARKS
GUAM AIRPORT   MOSUNNY   84  72  65 E12       29.91R
ANDERSEN AFB   MOSUNNY   82  72  69 E10       29.91R
ROTA AIRPORT   MOSUNNY   82  73  74 E13       29.92R
TINIAN AP      MOSUNNY   84  72  65 E10       29.89S
SAIPAN AP      SUNNY     84  72  65 E10       29.90R

$$




USA.gov is the U.S. government's official web portal to all federal, state and local government web resources and services.